Location: Poughquag
(41.6090°N, 73.6820°W)
Time: 06:26:18
(UTC-05:00)

STRAND 1 - Pass Details

Date: 02 December 2023
Orbit: 766 x 778 km, 98.4° (Epoch: 24 February)

Event Time Altitude Azimuth Distance (km) Brightness Sun altitude
Exits shadow 18:09:20 31° 46° (NE) 1,331 ? -19.0°
Maximum altitude 18:11:21 47° 99° (E) 1,012 ? -19.3°
Drops below altitude 10° 18:16:14 10° 173° (S) 2,299 ? -20.2°
Sets 18:18:36 0° 179° (S) 3,223 ? -20.6°
